Погода в Шереметьеве

Россия / Пензенская область     53°10′30″N   43°04′16″E
темп.,
°C
ветер,
м/с
пор.,
м/с
влажн.,
%
обл.,
%
осадки,
мм/ч
давл.,
гПа
погр.,
м
23 апреля, пт
пт2300:00+9ююв3374100 0.0 102258
03:00+8юв3470100 0.0 102266
06:00+8юв3978100 0.0 1022205
09:00+12ююв586692 0.0 1022420
12:00+15ююв4547100 0.0 10202156
15:00+14юв3554100 0.0 1019710
18:00+14юв3562100 0.1 1017133
21:00+10ююв4976100 0.1 1017193
24 апреля, сб
сб2400:00+9ю4108350 0.1 1016272
03:00+7ююв379217 0.1 1014139
06:00+7ююв499262 0.0 1012255
09:00+11ю6972100 0.1 1010675
12:00+14ююз6957100 1.3 10081509
15:00+9ююз81282100 2.3 10071268
18:00+4з61092100 2.1 1009734
21:00+6зюз6985100 2.3 10091004
25 апреля, вс
вс2500:00+4юз713763 0.1 1009542
03:00+2юз71385100 0.2 1009627
06:00+2зюз91596100 1.3 1009872
09:00+2з81497100 2.1 1012666
12:00+7з9115895 0.1 10141868
15:00+8зюз81148100 0.3 10152296
18:00+7зюз611530 0.3 1015965
21:00+4ююз34705 0.3 101663
26 апреля, пн
пн2600:00+3ююз5147140 0.0 1016336
03:00+3ююз6157038 0.0 1016443
06:00+2ююз387886 0.0 1016290
09:00+5юз3683100 0.1 1015620
12:00+6з4782100 0.4 1015789
15:00+5з369498 0.6 1014354
18:00+6зюз2377100 0.0 1013402
21:00+5юв2284100 0.2 101252
27 апреля, вт
вт2700:00+3з3494100 2.6 1012396
03:00+3ююз239499 3.6 101198
06:00+2юз36935 0.0 1011232
09:00+7зюз45653 0.0 1011782
12:00+8зюз5755100 1.0 10101575
15:00+8зюз6854100 2.2 10101676
18:00+6з69675 1.1 10111088
21:00+4зюз367692 1.2 1012134